Voltar ao catálogo

THOR ABLE DEB

YO

AtivoVLEO
NORAD 115·DEBRIS·🇺🇸 United States

Lançado Apr 1, 1960 de Cape Canaveral Space Force Station

Loading…

Próximas Passagens (próximas 24 horas)

TLE

AtualizadoSource: Space-Track

Época: Sep 6, 2026, 20:38 UTC

1 00115U 60002D   26249.86004976  .00001554  00000-0  14827-3 0  9998
2 00115  48.1641  58.9094 0026497 266.3150  93.4739 14.98556646530387

Acompanhe THOR ABLE DEB em tempo real com AllMySat

Download on the App Store